This is the latest recevied weather packets stored in our database for station/object K5NWZ. If no packets are shown the sender has not sent any weather packets the latest 10 day(s).
| Time | Temp. | Humidity | Pressure | Rain* | Wind** | Luminosity | Snow |
|---|---|---|---|---|---|---|---|
| 1787560339 | 20.56° C | 60% | 1029.4 hPa | 0 mm | - | 0 W/m² | - |
| 1787560036 | 20.56° C | 59% | 1029.4 hPa | 0 mm | - | 0 W/m² | - |
| 1787559736 | 20.56° C | 60% | 1029.3 hPa | 0 mm | - | 0 W/m² | - |
| 1787559431 | 20.56° C | 61% | 1029.3 hPa | 0 mm | - | 0 W/m² | - |
| 1787559130 | 20° C | 61% | 1029.1 hPa | 0 mm | - | 0 W/m² | - |
| 1787558826 | 20° C | 61% | 1029.3 hPa | 0 mm | - | 0 W/m² | - |
| 1787558522 | 20° C | 61% | 1029.4 hPa | 0 mm | - | 0 W/m² | - |
| 1787558218 | 20° C | 62% | 1029.1 hPa | 0 mm | - | 0 W/m² | - |
| 1787557917 | 19.44° C | 65% | 1029.4 hPa | 0 mm | - | 0 W/m² | - |
| 1787557613 | 18.89° C | 71% | 1029.1 hPa | 0 mm | - | 0 W/m² | - |
| 1787557309 | 18.89° C | 71% | 1029.3 hPa | 0 mm | - | 0 W/m² | - |
| 1787557007 | 19.44° C | 70% | 1029.1 hPa | 0 mm | - | 0 W/m² | - |
| 1787556702 | 19.44° C | 68% | 1029.3 hPa | 0 mm | - | 0 W/m² | - |
| 1787556398 | 20° C | 68% | 1029.1 hPa | 0 mm | - | 0 W/m² | - |
| 1787556094 | 20° C | 67% | 1029.1 hPa | 0 mm | - | 0 W/m² | - |
| 1787555789 | 20° C | 66% | 1029.3 hPa | 0 mm | - | 0 W/m² | - |
| 1787555488 | 20° C | 65% | 1029.3 hPa | 0 mm | - | 0 W/m² | - |
| 1787555184 | 20.56° C | 64% | 1029.3 hPa | 0 mm | - | 0 W/m² | - |
| 1787554880 | 20.56° C | 64% | 1029.4 hPa | 0 mm | - | 0 W/m² | - |
| 1787554576 | 20.56° C | 62% | 1029.4 hPa | 0 mm | - | 0 W/m² | - |
| 1787554274 | 20.56° C | 62% | 1029.3 hPa | 0 mm | - | 0 W/m² | - |
| 1787553969 | 21.11° C | 61% | 1029.5 hPa | 0 mm | - | 0 W/m² | - |
| 1787553665 | 21.11° C | 60% | 1029.4 hPa | 0 mm | - | 0 W/m² | - |
| 1787553361 | 21.11° C | 60% | 1029.3 hPa | 0 mm | - | 0 W/m² | - |
| 1787553057 | 21.11° C | 61% | 1029.4 hPa | 0 mm | - | 0 W/m² | - |
* Rain latest hour (hover to see other rain measurements)
** Current wind speed in m/s (hover to see current wind gust speed)